Meadville, PA

8:34 AM EST on December 13, 2019 (GMT -0500)
Port Meadville

Weather History for KGKJ - October, 2019

Change the Weather History Date:

Monday, October 28, 2019

  Actual Average Record
Temperature  
Mean Temperature 52 °F -  
Max Temperature 64 °F 59 °F 78 °F (1984)
Min Temperature 42 °F 36 °F 21 °F (1976)
Degree Days  
Heating Degree Days 12    
Growing Degree Days 2 (Base 50)    
Moisture  
Dew Point 43 °F    
Average Humidity 78    
Maximum Humidity 100    
Minimum Humidity 45    
Precipitation  
Precipitation 0.00 in - - ()
Sea Level Pressure  
Sea Level Pressure 30.11 in    
Wind  
Wind Speed 4 mph ()    
Max Wind Speed 7 mph    
Max Gust Speed -    
Visibility 9.7 miles    
Events      
Averages and records for this station are not official NWS values.
T = Trace of Precipitation, MM = Missing Value Source: Averaged Metar Reports

Daily Weather History Graph

Daily Weather History Graph

Search for Another Location

Airport or City:

Astronomy

Oct. 28, 2019 Rise Set
Actual Time 7:47 AM EDT 6:20 PM EDT
Civil Twilight 7:19 AM EDT 6:49 PM EDT
Nautical Twilight 6:46 AM EDT 7:22 PM EDT
Astronomical Twilight 6:14 AM EDT 7:54 PM EDT
Moon 8:06 AM EDT (10/28) 7:05 PM EDT (10/28)
Length of Visible Light 11h 30m
Length of Day
10h 33m
New Moon, 0% of the Moon is Illuminated
Oct 28
New Moon
Nov 4
First Quarter
Nov 12
Full
Nov 19
Last Quarter
Nov 26
New

Hourly Weather History & Observations

Time (EDT) Temp. Windchill Dew Point Humidity Pressure Visibility Wind Dir Wind Speed Gust Speed Precip Events Conditions
12:53 AM 46.0 °F 43.9 °F 43.0 °F 89% 30.07 in 10.0 mi South 4.6 mph - N/A   Clear
1:53 AM 46.0 °F 44.8 °F 44.1 °F 93% 30.08 in 10.0 mi Variable 3.5 mph - N/A   Clear
2:53 AM 46.0 °F 43.1 °F 44.1 °F 93% 30.09 in 10.0 mi South 5.8 mph - N/A   Clear
3:53 AM 45.0 °F 41.8 °F 43.0 °F 93% 30.11 in 10.0 mi South 5.8 mph - N/A   Clear
4:53 AM 45.0 °F 42.6 °F 43.0 °F 93% 30.11 in 10.0 mi South 4.6 mph - N/A   Clear
5:53 AM 43.0 °F 38.8 °F 41.0 °F 93% 30.12 in 10.0 mi South 6.9 mph - N/A   Clear
6:12 AM 43.0 °F 39.5 °F 42.1 °F 97% 30.11 in 10.0 mi South 5.8 mph - N/A   Scattered Clouds
6:21 AM 44.1 °F 40.8 °F 42.1 °F 93% 30.11 in 10.0 mi South 5.8 mph - N/A   Mostly Cloudy
6:51 AM 42.8 °F - 41.0 °F 93% 30.12 in 10.0 mi Calm Calm - N/A   Scattered Clouds
6:53 AM 42.1 °F - 41.0 °F 96% 30.13 in 10.0 mi Calm Calm - N/A   Scattered Clouds
7:02 AM 43.0 °F 41.3 °F 41.0 °F 93% 30.12 in 10.0 mi Variable 3.5 mph - N/A   Mostly Cloudy
7:53 AM 42.1 °F - 41.0 °F 96% 30.14 in 4.0 mi Calm Calm - N/A   Overcast
8:53 AM 42.1 °F 40.2 °F 42.1 °F 100% 30.15 in 6.0 mi SE 3.5 mph - N/A   Overcast
9:40 AM 46.0 °F 43.9 °F 45.0 °F 96% 30.14 in 10.0 mi South 4.6 mph - N/A   Scattered Clouds
9:53 AM 46.0 °F 44.8 °F 45.0 °F 96% 30.16 in 10.0 mi South 3.5 mph - N/A   Clear
10:53 AM 48.9 °F - 45.0 °F 86% 30.16 in 10.0 mi SSW 4.6 mph - N/A   Clear
11:53 AM 55.0 °F - 46.0 °F 72% 30.16 in 10.0 mi SSW 6.9 mph - N/A   Clear
12:53 PM 59.0 °F - 44.1 °F 58% 30.14 in 10.0 mi SSW 6.9 mph - N/A   Clear
1:53 PM 61.0 °F - 43.0 °F 52% 30.11 in 10.0 mi SW 4.6 mph - N/A   Clear
2:53 PM 63.0 °F - 41.0 °F 45% 30.09 in 10.0 mi SSE 6.9 mph - N/A   Clear
3:53 PM 63.0 °F - 41.0 °F 45% 30.08 in 10.0 mi South 6.9 mph - N/A   Clear
4:53 PM 63.0 °F - 41.0 °F 45% 30.09 in 10.0 mi South 6.9 mph - N/A   Clear
5:53 PM 61.0 °F - 39.9 °F 46% 30.09 in 10.0 mi South 4.6 mph - N/A   Clear
6:53 PM 55.9 °F - 42.1 °F 60% 30.10 in 10.0 mi Calm Calm - N/A   Clear
7:53 PM 55.9 °F - 43.0 °F 62% 30.11 in 10.0 mi Calm Calm - N/A   Clear
8:53 PM 52.0 °F - 43.0 °F 71% 30.10 in 10.0 mi Calm Calm - N/A   Clear
9:53 PM 52.0 °F - 42.1 °F 69% 30.09 in 10.0 mi Calm Calm - N/A   Clear
10:53 PM 50.0 °F - 42.1 °F 74% 30.10 in 10.0 mi Calm Calm - N/A   Clear
11:53 PM 51.1 °F - 41.0 °F 68% 30.08 in 10.0 mi Calm Calm - N/A   Clear